QPF
0.00 0.00 0.00 0.00 0.00 0.00 0.00 0.00 0.00 0.00 0.00 0.00 0.00 0.00 0.00 0.00 0.00 0.01 0.00 0.00 0.01 0.03 0.04 0.05 0.06 0.05 0.05 0.06 0.07 0.10 0.14 0.20 0.20 0.31 0.25 0.19 0.25 0.25 0.12 0.09 0.06 0.07 0.08
0.00 0.00 0.00 0.00 0.00 0.00 0.00 0.00 0.00 0.00 0.00 0.00 0.00 0.00 0.00 0.00 0.01 0.01 0.01 0.00 0.01 0.02 0.03 0.03 0.05 0.06 0.06 0.07 0.06 0.08 0.11 0.16 0.15 0.19 0.21 0.20 0.23 0.23 0.12 0.08 0.05 0.05 0.08
0.00 0.00 0.00 0.00 0.00 0.00 0.00 0.00 0.00 0.00 0.00 0.00 0.00 0.00 0.00 0.00 0.00 0.01 0.00 0.00 0.00 0.01 0.01 0.02 0.03 0.04 0.06 0.06 0.06 0.09 0.16 0.17 0.15 0.14 0.14 0.12 0.11 0.12 0.10 0.07 0.06 0.07 0.09
0.00 0.00 0.00 0.00 0.00 0.00 0.00 0.00 0.00 0.00 0.00 0.00 0.00 0.00 0.00 0.00 0.01 0.01 0.00 0.00 0.00 0.00 0.01 0.01 0.02 0.03 0.04 0.05 0.06 0.11 0.22 0.21 0.16 0.12 0.12 0.10 0.07 0.09 0.09 0.09 0.08 0.07 0.08
0.00 0.00 0.00 0.00 0.00 0.00 0.00 0.00 0.00 0.00 0.00 0.00 0.00 0.01 0.00 0.01 0.01 0.00 0.00 0.00 0.00 0.00 0.01 0.01 0.01 0.02 0.03 0.05 0.07 0.09 0.14 0.22 0.19 0.13 0.10 0.10 0.13 0.12 0.09 0.08 0.08 0.06 0.06
0.00 0.00 0.00 0.00 0.00 0.00 0.00 0.00 0.00 0.00 0.00 0.00 0.00 0.01 0.01 0.01 0.01 0.01 0.01 0.01 0.01 0.00 0.00 0.01 0.01 0.02 0.02 0.04 0.05 0.06 0.10 0.16 0.18 0.15 0.10 0.10 0.14 0.16 0.12 0.09 0.08 0.08 0.07
0.00 0.00 0.00 0.00 0.00 0.00 0.00 0.00 0.00 0.00 0.00 0.00 0.01 0.02 0.01 0.01 0.01 0.01 0.01 0.01 0.01 0.01 0.01 0.01 0.01 0.02 0.03 0.03 0.04 0.05 0.08 0.11 0.13 0.15 0.10 0.09 0.11 0.17 0.19 0.13 0.10 0.09 0.08
0.00 0.00 0.00 0.00 0.00 0.00 0.00 0.00 0.00 0.00 0.00 0.00 0.01 0.01 0.01 0.01 0.01 0.01 0.01 0.01 0.01 0.01 0.01 0.01 0.01 0.02 0.02 0.05 0.04 0.03 0.06 0.12 0.12 0.12 0.10 0.09 0.10 0.17 0.26 0.22 0.15 0.11 0.10
0.00 0.00 0.00 0.00 0.00 0.00 0.00 0.00 0.00 0.00 0.01 0.00 0.00 0.01 0.01 0.01 0.01 0.01 0.01 0.01 0.00 0.01 0.01 0.01 0.01 0.01 0.02 0.03 0.04 0.02 0.07 0.16 0.14 0.13 0.11 0.11 0.12 0.17 0.27 0.28 0.23 0.15 0.10
0.00 0.00 0.00 0.00 0.00 0.00 0.00 0.00 0.00 0.00 0.00 0.00 0.00 0.00 0.01 0.01 0.01 0.02 0.01 0.01 0.01 0.01 0.01 0.01 0.01 0.01 0.01 0.02 0.03 0.02 0.07 0.21 0.20 0.18 0.14 0.12 0.13 0.15 0.19 0.22 0.26 0.20 0.13
0.00 0.00 0.00 0.00 0.00 0.00 0.00 0.00 0.00 0.00 0.00 0.00 0.00 0.01 0.02 0.02 0.01 0.02 0.01 0.01 0.00 0.00 0.01 0.01 0.01 0.02 0.02 0.02 0.03 0.03 0.05 0.15 0.21 0.18 0.15 0.13 0.13 0.14 0.15 0.20 0.25 0.26 0.19
0.00 0.00 0.00 0.00 0.00 0.00 0.00 0.00 0.00 0.00 0.00 0.00 0.00 0.00 0.01 0.02 0.02 0.03 0.01 0.01 0.00 0.01 0.01 0.01 0.01 0.02 0.02 0.02 0.01 0.02 0.03 0.08 0.14 0.16 0.15 0.12 0.12 0.12 0.15 0.19 0.24 0.28 0.24
0.00 0.00 0.00 0.00 0.00 0.00 0.00 0.00 0.00 0.00 0.00 0.00 0.00 0.00 0.00 0.01 0.02 0.02 0.02 0.01 0.01 0.01 0.01 0.01 0.01 0.02 0.01 0.01 0.01 0.02 0.02 0.05 0.08 0.12 0.13 0.11 0.09 0.10 0.13 0.15 0.18 0.22 0.24
0.00 0.00 0.00 0.00 0.00 0.00 0.00 0.00 0.00 0.00 0.00 0.00 0.00 0.00 0.00 0.01 0.01 0.01 0.02 0.02 0.02 0.02 0.02 0.02 0.01 0.01 0.01 0.01 0.01 0.02 0.03 0.04 0.06 0.09 0.10 0.12 0.09 0.08 0.11 0.13 0.14 0.16 0.17
0.00 0.00 0.00 0.00 0.00 0.00 0.00 0.00 0.00 0.00 0.00 0.00 0.00 0.00 0.00 0.00 0.01 0.01 0.01 0.01 0.03 0.03 0.03 0.03 0.02 0.02 0.02 0.02 0.01 0.01 0.02 0.04 0.06 0.07 0.08 0.11 0.11 0.07 0.08 0.10 0.11 0.11 0.10
0.00 0.00 0.00 0.00 0.00 0.00 0.00 0.00 0.00 0.00 0.00 0.00 0.00 0.00 0.01 0.01 0.01 0.01 0.00 0.01 0.01 0.02 0.03 0.03 0.02 0.01 0.01 0.02 0.03 0.02 0.02 0.03 0.06 0.07 0.07 0.08 0.15 0.12 0.10 0.08 0.09 0.09 0.08
0.00 0.00 0.00 0.00 0.00 0.00 0.00 0.00 0.00 0.00 0.00 0.00 0.00 0.01 0.01 0.01 0.01 0.01 0.00 0.00 0.01 0.01 0.02 0.02 0.01 0.01 0.01 0.01 0.03 0.03 0.02 0.03 0.03 0.05 0.05 0.07 0.11 0.14 0.13 0.11 0.09 0.08 0.07
0.00 0.00 0.00 0.00 0.00 0.00 0.00 0.00 0.00 0.00 0.00 0.00 0.01 0.02 0.01 0.02 0.02 0.02 0.01 0.01 0.01 0.01 0.02 0.02 0.01 0.01 0.01 0.01 0.02 0.03 0.03 0.03 0.03 0.04 0.05 0.06 0.06 0.10 0.12 0.12 0.09 0.08 0.07
0.00 0.00 0.00 0.00 0.00 0.00 0.00 0.00 0.00 0.00 0.00 0.01 0.02 0.02 0.01 0.01 0.02 0.02 0.01 0.01 0.01 0.01 0.01 0.02 0.01 0.01 0.01 0.01 0.02 0.03 0.04 0.04 0.04 0.03 0.03 0.04 0.06 0.08 0.10 0.10 0.09 0.08 0.07
0.00 0.00 0.00 0.00 0.00 0.00 0.00 0.00 0.00 0.00 0.01 0.02 0.03 0.02 0.01 0.01 0.01 0.02 0.01 0.01 0.01 0.01 0.01 0.02 0.02 0.01 0.01 0.02 0.02 0.03 0.06 0.06 0.05 0.03 0.02 0.03 0.05 0.07 0.09 0.08 0.07 0.07 0.07
0.00 0.00 0.00 0.00 0.00 0.00 0.00 0.00 0.00 0.00 0.00 0.02 0.02 0.01 0.01 0.01 0.01 0.01 0.01 0.02 0.02 0.02 0.02 0.02 0.02 0.02 0.02 0.02 0.02 0.02 0.04 0.06 0.06 0.05 0.03 0.02 0.03 0.03 0.05 0.09 0.08 0.07 0.07
0.00 0.00 0.00 0.00 0.00 0.00 0.00 0.00 0.00 0.00 0.01 0.01 0.01 0.01 0.01 0.01 0.01 0.01 0.01 0.01 0.02 0.02 0.02 0.02 0.02 0.02 0.01 0.02 0.02 0.02 0.03 0.06 0.06 0.06 0.05 0.03 0.03 0.03 0.03 0.05 0.07 0.06 0.06
0.00 0.00 0.00 0.00 0.00 0.00 0.00 0.00 0.00 0.00 0.00 0.00 0.00 0.01 0.01 0.00 0.01 0.00 0.00 0.01 0.01 0.01 0.01 0.02 0.01 0.01 0.01 0.02 0.02 0.02 0.02 0.04 0.06 0.06 0.07 0.06 0.05 0.04 0.03 0.03 0.05 0.04 0.03
0.00 0.00 0.00 0.00 0.00 0.00 0.00 0.00 0.00 0.00 0.00 0.00 0.00 0.01 0.00 0.00 0.00 0.00 0.01 0.01 0.01 0.01 0.01 0.01 0.01 0.01 0.02 0.03 0.03 0.03 0.03 0.04 0.05 0.07 0.07 0.07 0.05 0.04 0.04 0.03 0.04 0.04 0.04
0.00 0.00 0.00 0.00 0.00 0.00 0.00 0.00 0.00 0.00 0.00 0.00 0.01 0.01 0.01 0.01 0.00 0.00 0.01 0.02 0.01 0.01 0.01 0.01 0.00 0.01 0.01 0.02 0.03 0.03 0.03 0.03 0.05 0.07 0.07 0.06 0.05 0.04 0.04 0.04 0.04 0.04 0.05
0.00 0.00 0.00 0.00 0.00 0.00 0.00 0.00 0.00 0.00 0.00 0.00 0.00 0.00 0.00 0.01 0.01 0.01 0.01 0.02 0.02 0.01 0.01 0.00 0.00 0.00 0.01 0.02 0.02 0.02 0.03 0.03 0.04 0.06 0.07 0.07 0.06 0.06 0.06 0.06 0.04 0.04 0.04
MSLP
1017.37 1017.25 1017.07 1016.82 1016.49 1016.10 1015.67 1015.22 1014.79 1014.37 1013.99 1013.63 1013.30 1012.99 1012.71 1012.45 1012.23 1012.08 1011.99 1011.98 1012.03 1012.10 1012.14 1012.10 1011.89 1011.49 1010.86 1010.02 1009.04 1007.99 1006.99 1006.17 1005.64 1005.48 1005.74 1006.40 1007.41 1008.67 1010.06 1011.45 1012.74 1013.85 1014.74
1017.57 1017.44 1017.25 1016.99 1016.67 1016.28 1015.86 1015.43 1014.99 1014.58 1014.19 1013.84 1013.51 1013.20 1012.92 1012.66 1012.43 1012.27 1012.16 1012.12 1012.14 1012.18 1012.20 1012.15 1011.98 1011.62 1011.07 1010.33 1009.45 1008.51 1007.61 1006.86 1006.38 1006.24 1006.48 1007.09 1008.02 1009.18 1010.48 1011.78 1012.98 1014.02 1014.87
1017.75 1017.61 1017.42 1017.18 1016.87 1016.52 1016.13 1015.72 1015.31 1014.92 1014.55 1014.20 1013.88 1013.58 1013.29 1013.02 1012.78 1012.57 1012.42 1012.33 1012.29 1012.29 1012.28 1012.23 1012.08 1011.80 1011.36 1010.77 1010.06 1009.29 1008.55 1007.93 1007.53 1007.42 1007.64 1008.17 1008.99 1010.00 1011.14 1012.28 1013.35 1014.28 1015.04
1017.91 1017.76 1017.59 1017.37 1017.10 1016.79 1016.45 1016.09 1015.72 1015.36 1015.01 1014.69 1014.38 1014.08 1013.79 1013.50 1013.23 1012.98 1012.77 1012.61 1012.50 1012.43 1012.37 1012.31 1012.19 1011.99 1011.67 1011.25 1010.74 1010.17 1009.63 1009.17 1008.89 1008.82 1009.01 1009.46 1010.13 1010.97 1011.90 1012.85 1013.75 1014.54 1015.21
1018.06 1017.92 1017.76 1017.57 1017.35 1017.10 1016.81 1016.49 1016.17 1015.85 1015.54 1015.23 1014.94 1014.65 1014.36 1014.06 1013.76 1013.47 1013.20 1012.95 1012.75 1012.60 1012.48 1012.39 1012.28 1012.15 1011.95 1011.70 1011.38 1011.03 1010.69 1010.40 1010.23 1010.22 1010.39 1010.75 1011.27 1011.93 1012.66 1013.41 1014.13 1014.78 1015.34
1018.23 1018.10 1017.97 1017.81 1017.64 1017.43 1017.19 1016.92 1016.64 1016.35 1016.07 1015.79 1015.51 1015.24 1014.95 1014.65 1014.33 1014.00 1013.67 1013.35 1013.07 1012.83 1012.63 1012.49 1012.38 1012.28 1012.18 1012.06 1011.92 1011.76 1011.60 1011.48 1011.42 1011.46 1011.62 1011.90 1012.29 1012.77 1013.32 1013.88 1014.44 1014.96 1015.44
1018.48 1018.36 1018.24 1018.11 1017.97 1017.79 1017.58 1017.35 1017.10 1016.84 1016.57 1016.31 1016.06 1015.80 1015.53 1015.24 1014.91 1014.56 1014.19 1013.81 1013.45 1013.13 1012.86 1012.65 1012.51 1012.43 1012.38 1012.36 1012.35 1012.34 1012.33 1012.34 1012.38 1012.46 1012.61 1012.83 1013.12 1013.46 1013.85 1014.27 1014.69 1015.11 1015.52
1018.85 1018.73 1018.61 1018.49 1018.36 1018.19 1018.00 1017.78 1017.54 1017.29 1017.05 1016.80 1016.56 1016.33 1016.08 1015.80 1015.49 1015.14 1014.75 1014.33 1013.92 1013.53 1013.19 1012.92 1012.74 1012.63 1012.60 1012.63 1012.70 1012.78 1012.88 1012.98 1013.10 1013.22 1013.37 1013.55 1013.76 1014.00 1014.28 1014.58 1014.91 1015.25 1015.60
1019.33 1019.21 1019.09 1018.96 1018.81 1018.65 1018.45 1018.23 1017.99 1017.75 1017.50 1017.27 1017.05 1016.83 1016.61 1016.37 1016.08 1015.75 1015.36 1014.93 1014.49 1014.05 1013.66 1013.33 1013.09 1012.94 1012.89 1012.92 1013.02 1013.15 1013.30 1013.46 1013.62 1013.78 1013.93 1014.09 1014.26 1014.44 1014.64 1014.87 1015.13 1015.41 1015.72
1019.92 1019.78 1019.64 1019.49 1019.33 1019.15 1018.94 1018.71 1018.47 1018.22 1017.97 1017.75 1017.54 1017.35 1017.15 1016.94 1016.69 1016.39 1016.02 1015.61 1015.15 1014.69 1014.25 1013.87 1013.57 1013.37 1013.28 1013.28 1013.35 1013.49 1013.65 1013.83 1014.02 1014.19 1014.35 1014.51 1014.66 1014.81 1014.98 1015.17 1015.37 1015.61 1015.88
1020.53 1020.38 1020.22 1020.05 1019.87 1019.68 1019.46 1019.23 1018.98 1018.73 1018.49 1018.27 1018.08 1017.90 1017.73 1017.55 1017.34 1017.07 1016.73 1016.33 1015.89 1015.42 1014.95 1014.53 1014.17 1013.91 1013.76 1013.70 1013.72 1013.82 1013.97 1014.14 1014.32 1014.50 1014.67 1014.83 1014.99 1015.14 1015.30 1015.46 1015.64 1015.85 1016.07
1021.12 1020.95 1020.77 1020.59 1020.40 1020.21 1020.01 1019.78 1019.55 1019.31 1019.08 1018.87 1018.68 1018.52 1018.36 1018.20 1018.01 1017.77 1017.46 1017.09 1016.66 1016.19 1015.71 1015.25 1014.85 1014.53 1014.30 1014.16 1014.12 1014.16 1014.25 1014.39 1014.55 1014.73 1014.90 1015.08 1015.25 1015.41 1015.57 1015.74 1015.90 1016.08 1016.26
1021.59 1021.41 1021.23 1021.06 1020.89 1020.72 1020.54 1020.35 1020.14 1019.93 1019.72 1019.52 1019.34 1019.18 1019.03 1018.88 1018.70 1018.47 1018.19 1017.84 1017.42 1016.95 1016.47 1015.99 1015.54 1015.16 1014.86 1014.64 1014.52 1014.48 1014.50 1014.58 1014.71 1014.86 1015.03 1015.22 1015.40 1015.58 1015.76 1015.93 1016.09 1016.24 1016.39
1021.92 1021.75 1021.58 1021.43 1021.30 1021.17 1021.05 1020.90 1020.74 1020.56 1020.37 1020.19 1020.01 1019.85 1019.70 1019.54 1019.36 1019.14 1018.87 1018.53 1018.13 1017.67 1017.18 1016.68 1016.20 1015.77 1015.40 1015.10 1014.89 1014.76 1014.71 1014.72 1014.79 1014.90 1015.05 1015.23 1015.42 1015.61 1015.80 1015.98 1016.14 1016.28 1016.41
1022.11 1021.96 1021.82 1021.71 1021.63 1021.56 1021.50 1021.41 1021.30 1021.16 1021.00 1020.83 1020.65 1020.48 1020.32 1020.15 1019.97 1019.75 1019.48 1019.15 1018.76 1018.32 1017.83 1017.32 1016.81 1016.33 1015.90 1015.53 1015.23 1015.01 1014.87 1014.80 1014.80 1014.85 1014.96 1015.11 1015.28 1015.47 1015.66 1015.84 1016.01 1016.14 1016.26
1022.19 1022.07 1021.97 1021.92 1021.89 1021.89 1021.88 1021.84 1021.78 1021.67 1021.53 1021.37 1021.19 1021.02 1020.84 1020.66 1020.47 1020.26 1020.00 1019.68 1019.31 1018.88 1018.40 1017.89 1017.36 1016.85 1016.37 1015.93 1015.56 1015.25 1015.01 1014.85 1014.76 1014.74 1014.78 1014.87 1015.00 1015.16 1015.34 1015.51 1015.67 1015.81 1015.93
1022.23 1022.14 1022.09 1022.08 1022.11 1022.15 1022.18 1022.19 1022.15 1022.06 1021.93 1021.77 1021.59 1021.41 1021.22 1021.04 1020.86 1020.65 1020.41 1020.12 1019.77 1019.36 1018.90 1018.40 1017.87 1017.34 1016.82 1016.34 1015.90 1015.51 1015.18 1014.93 1014.74 1014.62 1014.56 1014.57 1014.63 1014.73 1014.86 1015.00 1015.15 1015.29 1015.41
1022.28 1022.22 1022.21 1022.24 1022.30 1022.37 1022.42 1022.43 1022.39 1022.30 1022.16 1022.00 1021.82 1021.64 1021.46 1021.29 1021.13 1020.94 1020.73 1020.47 1020.16 1019.78 1019.35 1018.87 1018.35 1017.82 1017.28 1016.76 1016.27 1015.82 1015.42 1015.07 1014.77 1014.54 1014.38 1014.27 1014.23 1014.24 1014.29 1014.38 1014.50 1014.62 1014.75
1022.37 1022.35 1022.37 1022.42 1022.48 1022.55 1022.58 1022.57 1022.51 1022.40 1022.25 1022.07 1021.89 1021.72 1021.56 1021.42 1021.28 1021.14 1020.97 1020.76 1020.48 1020.15 1019.75 1019.30 1018.80 1018.28 1017.74 1017.21 1016.69 1016.19 1015.72 1015.29 1014.90 1014.56 1014.27 1014.04 1013.87 1013.77 1013.72 1013.73 1013.78 1013.88 1014.00
1022.49 1022.50 1022.54 1022.59 1022.64 1022.68 1022.67 1022.62 1022.52 1022.37 1022.20 1022.01 1021.83 1021.68 1021.55 1021.45 1021.36 1021.27 1021.14 1020.97 1020.74 1020.44 1020.08 1019.66 1019.19 1018.69 1018.17 1017.64 1017.11 1016.59 1016.08 1015.59 1015.12 1014.67 1014.27 1013.91 1013.61 1013.37 1013.20 1013.10 1013.08 1013.12 1013.21
1022.60 1022.64 1022.68 1022.73 1022.75 1022.74 1022.69 1022.58 1022.43 1022.25 1022.05 1021.86 1021.69 1021.57 1021.48 1021.42 1021.38 1021.32 1021.24 1021.11 1020.91 1020.64 1020.31 1019.92 1019.48 1019.00 1018.51 1018.00 1017.49 1016.97 1016.44 1015.91 1015.38 1014.86 1014.35 1013.88 1013.44 1013.07 1012.78 1012.57 1012.44 1012.41 1012.45
1022.63 1022.70 1022.75 1022.78 1022.77 1022.72 1022.61 1022.46 1022.26 1022.05 1021.84 1021.66 1021.51 1021.41 1021.36 1021.35 1021.34 1021.32 1021.26 1021.15 1020.97 1020.72 1020.40 1020.02 1019.61 1019.16 1018.70 1018.22 1017.74 1017.24 1016.72 1016.18 1015.62 1015.05 1014.47 1013.90 1013.37 1012.88 1012.47 1012.14 1011.91 1011.79 1011.76
1022.52 1022.61 1022.67 1022.69 1022.66 1022.58 1022.43 1022.25 1022.03 1021.81 1021.60 1021.43 1021.31 1021.25 1021.23 1021.23 1021.25 1021.24 1021.19 1021.07 1020.88 1020.63 1020.31 1019.94 1019.54 1019.12 1018.69 1018.25 1017.81 1017.34 1016.86 1016.33 1015.77 1015.18 1014.56 1013.94 1013.32 1012.75 1012.25 1011.82 1011.50 1011.28 1011.17
1022.22 1022.34 1022.42 1022.44 1022.40 1022.30 1022.14 1021.95 1021.73 1021.52 1021.34 1021.19 1021.10 1021.06 1021.06 1021.08 1021.09 1021.06 1020.99 1020.84 1020.63 1020.35 1020.01 1019.64 1019.25 1018.85 1018.45 1018.05 1017.65 1017.23 1016.78 1016.30 1015.76 1015.17 1014.55 1013.91 1013.26 1012.64 1012.07 1011.58 1011.18 1010.89 1010.70
1021.73 1021.88 1021.97 1022.00 1021.97 1021.87 1021.73 1021.56 1021.37 1021.19 1021.04 1020.93 1020.87 1020.84 1020.84 1020.84 1020.82 1020.76 1020.64 1020.45 1020.19 1019.88 1019.52 1019.14 1018.75 1018.37 1018.00 1017.64 1017.28 1016.90 1016.50 1016.05 1015.55 1015.00 1014.40 1013.76 1013.12 1012.49 1011.90 1011.37 1010.92 1010.57 1010.31
1021.08 1021.24 1021.35 1021.40 1021.38 1021.32 1021.21 1021.08 1020.94 1020.80 1020.69 1020.61 1020.56 1020.54 1020.52 1020.48 1020.42 1020.30 1020.13 1019.89 1019.59 1019.24 1018.87 1018.49 1018.11 1017.74 1017.40 1017.07 1016.74 1016.40 1016.03 1015.61 1015.15 1014.63 1014.07 1013.47 1012.86 1012.25 1011.67 1011.14 1010.68 1010.29 1009.98
Thickness
5732 5731 5730 5727 5727 5726 5725 5724 5725 5724 5724 5725 5725 5726 5726 5727 5728 5728 5728 5726 5726 5728 5729 5731 5733 5735 5737 5739 5741 5743 5746 5749 5752 5754 5756 5758 5760 5762 5764 5764 5764 5764 5765
5729 5728 5728 5726 5725 5723 5723 5722 5723 5721 5722 5722 5722 5722 5722 5724 5725 5725 5726 5725 5724 5725 5726 5728 5730 5732 5734 5736 5738 5740 5742 5745 5748 5750 5752 5754 5756 5758 5759 5760 5760 5761 5762
5727 5726 5726 5725 5723 5722 5721 5721 5721 5720 5720 5720 5720 5720 5720 5720 5721 5723 5723 5723 5725 5724 5724 5726 5728 5729 5731 5733 5735 5737 5739 5742 5744 5747 5749 5750 5752 5754 5755 5756 5757 5759 5760
5725 5723 5723 5722 5720 5719 5719 5718 5718 5718 5718 5717 5718 5718 5719 5718 5719 5720 5721 5722 5723 5724 5724 5724 5725 5727 5728 5731 5733 5734 5737 5740 5742 5743 5745 5747 5749 5750 5752 5753 5754 5756 5757
5723 5722 5720 5719 5718 5717 5717 5716 5715 5715 5714 5713 5715 5715 5717 5717 5717 5718 5719 5720 5721 5721 5723 5722 5723 5724 5726 5728 5730 5732 5734 5737 5739 5740 5741 5744 5746 5747 5749 5750 5752 5753 5754
5720 5720 5718 5717 5716 5715 5713 5713 5712 5711 5711 5711 5713 5713 5714 5715 5715 5715 5716 5717 5718 5719 5720 5721 5722 5723 5723 5725 5727 5729 5731 5733 5735 5736 5738 5740 5743 5744 5746 5748 5749 5750 5751
5718 5717 5717 5715 5712 5711 5710 5710 5710 5710 5709 5710 5711 5711 5713 5714 5714 5712 5713 5715 5716 5716 5717 5718 5720 5721 5723 5722 5724 5726 5727 5729 5731 5733 5735 5737 5740 5741 5744 5745 5746 5747 5748
5716 5715 5714 5713 5711 5708 5708 5707 5705 5706 5706 5706 5705 5705 5706 5708 5709 5711 5710 5710 5712 5713 5714 5715 5717 5719 5720 5721 5722 5723 5724 5726 5728 5730 5732 5734 5736 5738 5740 5742 5743 5744 5745
5714 5712 5711 5711 5709 5708 5706 5704 5703 5701 5701 5703 5703 5700 5698 5697 5701 5707 5707 5708 5708 5709 5711 5712 5714 5715 5717 5719 5720 5720 5722 5723 5725 5727 5729 5731 5733 5735 5737 5739 5740 5742 5744
5712 5710 5709 5708 5708 5706 5704 5703 5702 5700 5698 5698 5699 5697 5696 5694 5693 5696 5702 5704 5705 5706 5707 5709 5710 5712 5713 5715 5716 5716 5718 5720 5722 5724 5726 5729 5730 5732 5734 5736 5738 5740 5742
5710 5708 5707 5706 5705 5704 5702 5700 5699 5698 5697 5695 5694 5694 5693 5692 5693 5689 5690 5695 5700 5703 5704 5705 5707 5708 5710 5711 5712 5714 5714 5716 5719 5721 5724 5726 5728 5729 5731 5732 5734 5737 5739
5709 5707 5705 5704 5703 5702 5700 5698 5696 5695 5693 5691 5691 5691 5688 5687 5687 5687 5687 5690 5693 5698 5701 5702 5704 5704 5705 5707 5709 5709 5711 5713 5715 5718 5721 5723 5725 5726 5728 5729 5731 5732 5734
5707 5704 5703 5702 5700 5698 5697 5695 5694 5692 5691 5688 5687 5686 5686 5686 5685 5684 5684 5686 5688 5695 5697 5700 5702 5702 5703 5704 5705 5706 5708 5710 5712 5715 5719 5721 5722 5723 5725 5726 5727 5728 5729
5703 5701 5700 5698 5697 5695 5693 5691 5691 5689 5687 5685 5683 5682 5681 5682 5682 5681 5680 5680 5683 5689 5692 5695 5698 5699 5699 5700 5701 5702 5706 5707 5709 5712 5715 5716 5717 5719 5720 5722 5723 5724 5725
5700 5698 5697 5695 5693 5691 5689 5688 5686 5684 5683 5681 5679 5678 5677 5677 5677 5678 5678 5677 5676 5679 5684 5689 5692 5694 5695 5696 5697 5700 5703 5703 5705 5707 5709 5711 5713 5715 5716 5718 5719 5719 5721
5696 5694 5694 5692 5690 5687 5685 5683 5681 5678 5677 5676 5673 5672 5672 5673 5672 5673 5673 5674 5674 5675 5677 5684 5686 5689 5690 5692 5693 5696 5699 5700 5701 5703 5705 5706 5708 5710 5712 5713 5714 5715 5716
5692 5691 5689 5688 5686 5683 5681 5678 5676 5673 5672 5671 5670 5669 5667 5666 5666 5668 5669 5670 5671 5672 5672 5678 5683 5685 5686 5688 5689 5691 5694 5697 5699 5699 5701 5702 5704 5705 5707 5708 5709 5710 5711
5688 5687 5685 5683 5680 5678 5676 5673 5670 5668 5666 5665 5664 5663 5661 5660 5660 5661 5662 5664 5666 5667 5668 5670 5675 5678 5680 5682 5684 5686 5690 5693 5694 5695 5696 5698 5699 5701 5702 5703 5704 5705 5706
5683 5682 5680 5678 5675 5672 5670 5667 5665 5663 5661 5659 5658 5656 5656 5655 5655 5656 5657 5659 5660 5662 5662 5664 5667 5670 5673 5676 5678 5681 5684 5686 5689 5691 5692 5693 5694 5696 5697 5699 5700 5700 5701
5678 5677 5675 5672 5669 5667 5664 5662 5659 5657 5656 5654 5653 5652 5651 5650 5650 5651 5652 5653 5654 5655 5656 5657 5660 5663 5665 5669 5670 5672 5676 5679 5682 5685 5687 5688 5689 5690 5692 5693 5695 5695 5695
5672 5670 5668 5666 5663 5660 5657 5654 5653 5652 5651 5650 5649 5648 5647 5644 5642 5643 5644 5645 5646 5647 5649 5650 5652 5655 5658 5659 5661 5664 5666 5669 5674 5677 5679 5681 5683 5685 5687 5687 5688 5689 5690
5665 5663 5661 5659 5656 5653 5647 5644 5643 5645 5646 5645 5644 5644 5643 5642 5638 5637 5636 5636 5636 5639 5641 5642 5644 5646 5650 5652 5653 5654 5657 5659 5661 5667 5668 5670 5673 5676 5679 5681 5682 5682 5683
5657 5655 5653 5651 5649 5645 5640 5638 5636 5638 5639 5639 5638 5638 5637 5636 5633 5634 5633 5631 5632 5631 5631 5633 5636 5639 5641 5644 5644 5646 5648 5649 5651 5655 5656 5659 5663 5665 5669 5672 5673 5674 5675
5651 5648 5646 5644 5641 5638 5633 5631 5630 5632 5633 5632 5631 5630 5629 5629 5627 5625 5627 5628 5628 5628 5626 5627 5629 5631 5632 5633 5634 5636 5637 5640 5643 5645 5646 5647 5653 5655 5659 5661 5663 5665 5667
5643 5641 5639 5636 5634 5632 5627 5624 5622 5626 5626 5625 5623 5622 5620 5620 5616 5614 5616 5619 5620 5621 5619 5617 5617 5618 5619 5620 5621 5623 5626 5628 5631 5635 5636 5637 5641 5644 5648 5650 5653 5655 5657
5636 5634 5632 5630 5628 5626 5620 5616 5614 5618 5618 5618 5616 5614 5611 5609 5606 5604 5607 5609 5609 5610 5610 5611 5611 5612 5613 5614 5613 5614 5615 5617 5619 5622 5626 5625 5628 5630 5633 5639 5642 5644 5646